Temperature
11 10 10 9 9 9 8 8 7 7 7 6 6 5 5 5 4 4 4 3 3 3 2 2 2 1 1 1 -0 -1 -1 -2 -3 -3 -3 -3 -2 -2 -2 -2 -2 -2 -2
10 10 9 9 9 8 8 7 7 7 6 6 5 5 4 4 4 3 3 3 2 2 2 1 1 1 0 -0 -1 -1 -2 -2 -3 -4 -3 -4 -4 -4 -3 -3 -3 -3 -3
10 9 9 9 8 8 7 7 6 6 6 5 5 4 4 4 3 3 2 2 2 2 1 1 1 0 -0 -1 -1 -2 -2 -3 -3 -4 -4 -4 -4 -4 -4 -4 -4 -4 -4
9 9 9 8 8 7 7 6 6 6 5 5 4 4 3 3 3 2 2 2 1 1 1 0 -0 -1 -1 -2 -2 -2 -3 -4 -4 -4 -5 -5 -5 -5 -5 -5 -5 -5 -4
9 9 8 8 7 7 6 6 6 5 5 4 4 3 3 2 2 2 1 1 1 0 0 -0 -1 -1 -2 -2 -3 -4 -4 -4 -5 -5 -5 -5 -5 -5 -5 -5 -5 -5 -5
9 8 8 7 7 6 6 6 5 5 4 4 3 3 2 2 2 1 1 0 -0 -0 -1 -1 -1 -2 -2 -2 -3 -4 -4 -5 -5 -5 -5 -6 -6 -5 -5 -6 -6 -6 -6
8 8 7 7 6 6 5 5 5 4 4 3 3 2 2 2 1 1 0 -0 -1 -1 -1 -1 -2 -2 -3 -3 -3 -4 -4 -5 -5 -5 -6 -6 -6 -6 -6 -6 -6 -6 -5
8 7 7 6 6 5 5 5 4 3 3 3 2 2 2 1 1 0 -0 -1 -1 -1 -1 -2 -2 -3 -3 -4 -4 -4 -5 -5 -5 -5 -6 -6 -6 -6 -6 -5 -5 -5 -5
7 7 6 6 5 5 5 4 3 3 3 2 2 2 1 1 1 -0 -1 -1 -1 -1 -2 -2 -3 -3 -4 -5 -5 -5 -5 -5 -5 -6 -6 -6 -6 -6 -5 -5 -5 -6 -6
7 6 6 5 5 4 4 3 3 2 2 2 1 1 1 0 0 -0 -1 -2 -2 -2 -2 -3 -3 -4 -5 -5 -5 -6 -6 -6 -6 -6 -6 -6 -6 -6 -6 -6 -6 -6 -6
6 6 5 5 4 4 3 3 2 2 1 1 1 1 0 0 -0 -1 -1 -2 -3 -3 -3 -4 -4 -5 -5 -5 -6 -6 -6 -6 -6 -6 -6 -6 -6 -6 -6 -6 -6 -7 -7
5 5 5 4 4 3 2 2 2 1 1 1 0 0 0 -0 -1 -1 -2 -3 -4 -4 -4 -4 -5 -5 -6 -6 -6 -6 -6 -6 -6 -6 -6 -6 -6 -6 -6 -7 -7 -7 -7
5 4 4 3 3 2 2 2 1 1 0 -0 -1 -1 -1 -1 -2 -2 -3 -3 -4 -5 -5 -5 -5 -6 -6 -6 -6 -6 -7 -7 -7 -7 -7 -7 -7 -7 -7 -7 -7 -7 -7
4 4 3 3 2 2 1 1 0 0 -0 -1 -1 -2 -2 -2 -2 -3 -4 -4 -5 -5 -5 -5 -6 -6 -6 -6 -6 -6 -7 -7 -7 -7 -7 -7 -7 -8 -7 -8 -8 -8 -8
3 3 2 2 2 1 1 0 -0 -1 -1 -2 -2 -3 -3 -3 -3 -4 -5 -5 -6 -6 -6 -6 -6 -6 -7 -7 -7 -7 -7 -7 -8 -8 -8 -8 -8 -8 -8 -8 -8 -8 -8
2 2 2 1 1 0 -0 -0 -1 -1 -2 -2 -3 -4 -4 -4 -5 -5 -6 -6 -6 -6 -6 -7 -7 -7 -7 -7 -8 -8 -8 -8 -8 -9 -9 -9 -9 -9 -9 -9 -9 -9 -9
2 1 1 0 -0 -1 -1 -2 -2 -2 -3 -3 -4 -4 -4 -5 -5 -6 -6 -6 -7 -7 -7 -7 -7 -8 -8 -8 -9 -9 -9 -9 -9 -9 -9 -9 -9 -9 -9 -9 -9 -9 -9
1 0 -0 -1 -1 -1 -2 -3 -3 -4 -4 -4 -4 -5 -5 -6 -6 -6 -7 -7 -7 -7 -8 -8 -8 -8 -9 -9 -9 -9 -9 -9 -9 -9 -9 -9 -9 -9 -9 -9 -9 -9 -9
-0 -0 -1 -1 -2 -2 -3 -3 -4 -5 -5 -5 -5 -5 -6 -7 -7 -7 -8 -8 -8 -8 -8 -9 -9 -9 -9 -9 -10 -10 -10 -10 -10 -10 -10 -10 -10 -10 -10 -10 -10 -9 -9
-1 -1 -2 -2 -3 -3 -4 -5 -5 -6 -6 -6 -7 -7 -7 -8 -8 -8 -8 -8 -9 -9 -9 -9 -9 -9 -10 -10 -10 -10 -10 -10 -10 -10 -10 -10 -10 -10 -10 -10 -10 -10 -10
-2 -2 -3 -3 -4 -4 -5 -6 -6 -7 -7 -7 -7 -8 -8 -9 -9 -9 -9 -9 -9 -9 -10 -10 -10 -10 -10 -10 -10 -10 -10 -10 -10 -10 -10 -10 -10 -10 -10 -10 -10 -10 -10
-3 -3 -4 -4 -5 -6 -6 -6 -7 -7 -8 -8 -8 -8 -9 -9 -9 -9 -9 -9 -10 -10 -10 -10 -10 -10 -10 -11 -11 -11 -11 -11 -11 -10 -11 -10 -10 -10 -10 -10 -10 -10 -10
-4 -4 -5 -6 -6 -7 -7 -7 -8 -8 -9 -9 -9 -9 -10 -10 -10 -10 -10 -10 -10 -10 -10 -11 -11 -11 -11 -11 -11 -11 -11 -11 -11 -11 -11 -11 -11 -10 -10 -10 -10 -10 -10
-5 -6 -6 -7 -7 -7 -8 -8 -8 -9 -9 -10 -10 -10 -10 -10 -10 -11 -11 -11 -11 -11 -11 -11 -11 -11 -11 -11 -11 -11 -11 -11 -11 -11 -11 -11 -11 -11 -11 -10 -10 -10 -10
-6 -7 -7 -8 -8 -8 -9 -9 -9 -10 -10 -10 -11 -11 -11 -11 -11 -11 -11 -11 -11 -11 -11 -11 -11 -11 -11 -11 -11 -11 -11 -11 -11 -11 -11 -11 -11 -11 -11 -11 -11 -10 -10
-7 -8 -8 -8 -9 -9 -10 -10 -10 -11 -11 -11 -11 -11 -11 -11 -11 -11 -11 -11 -11 -11 -12 -12 -12 -12 -12 -12 -11 -11 -11 -11 -11 -11 -11 -11 -11 -11 -11 -11 -11 -11 -10
Wind_Speed
8 8 8 7 6 6 5 5 4 3 3 3 2 2 3 3 3 4 5 6 6 7 6 7 8 7 6 6 6 6 7 7 13 10 6 7 9 12 14 18 20 19 19
8 8 8 7 6 6 5 5 4 4 3 3 3 3 4 4 5 5 6 6 7 8 8 7 8 7 8 7 6 8 8 8 10 15 9 7 9 10 12 12 14 17 16
9 9 8 7 7 6 6 5 4 4 3 3 3 4 5 6 6 6 7 7 8 8 8 9 9 8 9 8 8 8 8 9 9 12 13 9 8 9 10 10 12 10 15
9 9 9 8 8 7 6 5 4 4 4 4 5 5 6 6 7 7 7 8 8 9 9 9 10 9 10 10 9 10 9 10 10 11 13 10 9 8 7 8 10 7 9
10 9 9 7 6 6 5 5 4 4 5 5 5 6 6 6 7 8 8 9 9 10 9 10 10 12 15 13 11 9 9 9 9 10 12 11 9 7 7 7 11 10 10
11 10 8 7 6 6 5 5 4 5 5 5 6 7 7 7 12 15 13 8 8 9 10 10 10 12 16 20 22 21 17 13 10 11 12 12 12 9 9 10 11 12 11
9 8 7 7 6 6 5 4 5 5 5 6 7 7 8 11 16 17 18 11 9 9 9 9 10 10 16 10 16 21 20 23 22 16 14 14 13 11 11 13 12 14 13
8 8 7 7 6 5 5 5 6 5 5 6 8 8 9 11 17 18 19 12 9 9 10 10 11 11 11 13 11 12 13 14 16 13 12 14 14 13 13 15 15 13 11
8 8 7 7 6 5 6 6 5 5 6 7 7 8 9 12 17 19 19 8 8 10 10 10 11 11 19 22 15 13 13 12 18 22 23 22 24 24 18 11 9 10 11
8 7 6 6 6 6 7 6 5 5 7 7 8 8 9 11 17 19 20 8 9 9 9 10 17 18 21 23 14 12 15 13 11 12 15 17 15 15 19 11 8 10 10
6 5 5 5 6 6 5 5 5 6 7 8 9 9 9 12 16 19 20 9 8 9 9 8 9 20 23 24 21 14 17 17 11 10 9 9 8 8 8 8 7 8 9
5 4 4 4 4 4 5 6 6 6 7 8 9 10 8 10 14 16 20 19 18 12 10 8 10 22 24 25 20 19 24 21 8 7 8 8 7 7 7 7 8 8 9
4 4 4 4 4 5 5 6 6 6 6 8 8 10 10 7 10 19 21 22 22 15 11 19 22 25 24 17 19 23 20 9 7 8 9 8 6 6 6 5 6 7 8
4 4 4 4 5 5 5 5 6 6 7 8 9 10 10 8 8 8 9 12 16 15 13 17 23 24 18 17 16 13 8 7 8 9 8 7 5 5 5 5 5 5 6
4 4 4 5 5 6 6 6 7 8 9 10 9 9 11 12 13 18 15 10 9 11 13 10 9 7 7 7 7 8 7 7 8 6 7 8 7 6 6 5 5 5 5
4 4 4 4 5 5 6 8 12 14 18 20 20 19 15 20 25 26 26 26 26 25 18 10 9 8 8 8 8 8 7 7 7 7 7 7 7 6 6 6 5 5 6
5 5 5 5 5 6 6 8 10 11 16 19 21 22 22 25 26 26 26 26 25 23 13 9 9 8 8 8 8 8 8 8 7 7 7 7 7 7 7 6 6 6 6
5 7 7 6 6 7 7 8 9 11 12 10 13 20 23 24 25 25 25 21 14 12 8 9 10 9 9 9 8 9 8 7 7 7 7 7 7 7 7 7 6 6 6
5 5 6 6 6 7 8 8 9 11 12 12 10 12 18 20 22 23 21 11 10 10 9 9 9 9 9 9 9 9 9 8 8 7 7 7 7 7 7 7 7 9 7
5 10 10 7 7 7 8 9 10 10 12 12 12 11 9 11 11 12 10 9 10 11 10 10 9 9 9 9 9 8 8 8 8 8 8 7 7 7 8 8 7 6 6
5 8 12 10 8 8 9 9 10 11 12 12 12 14 19 13 12 11 10 9 10 10 10 10 10 9 9 8 8 9 9 9 8 8 8 7 7 7 7 7 7 7 6
6 7 7 8 9 9 10 10 10 11 12 14 13 14 22 14 11 11 11 11 9 9 9 10 10 9 8 8 8 9 9 9 8 8 8 8 7 7 7 7 7 6 6
7 8 9 9 9 14 14 10 11 12 13 13 14 14 13 12 12 12 12 11 10 9 9 9 10 10 8 8 9 9 10 9 8 8 9 8 8 7 7 8 8 7 7
8 9 10 11 10 10 11 12 12 12 13 14 14 14 13 12 12 13 12 11 10 10 9 9 10 12 13 11 9 9 9 10 9 9 11 10 9 8 8 8 8 8 8
8 9 10 11 11 12 12 13 13 13 14 14 14 14 13 13 13 12 11 11 11 11 12 11 10 11 13 14 13 11 16 20 19 13 10 10 11 11 10 9 9 8 8
9 10 11 10 11 12 12 14 14 14 14 14 14 13 13 13 13 13 12 11 11 11 11 10 11 13 14 13 14 18 21 22 22 22 13 10 11 11 10 10 10 9 9
Wind_Direction
162 157 151 155 153 151 158 168 172 177 183 197 215 234 250 259 257 255 258 263 261 266 263 257 258 257 256 254 248 246 247 249 272 279 259 270 273 278 286 287 287 286 286
164 158 159 157 155 160 171 179 179 188 199 210 224 243 254 257 256 254 262 262 259 263 265 261 262 264 256 254 250 251 253 248 262 282 283 274 266 270 274 277 284 286 282
162 160 161 165 169 177 184 187 190 197 213 225 232 245 254 258 259 256 254 258 257 257 258 258 262 261 263 259 253 256 258 261 256 272 283 278 273 270 274 276 275 277 281
165 167 173 180 182 185 188 193 202 207 221 235 242 248 254 259 260 261 258 258 258 257 255 254 256 254 258 261 263 258 257 260 261 269 280 282 277 266 266 276 283 272 276
170 176 185 182 180 182 192 204 212 221 231 239 250 259 261 261 259 257 254 254 254 258 258 254 253 261 267 271 271 261 255 260 266 273 280 284 280 273 269 270 282 285 278
176 183 178 176 182 192 203 210 221 236 244 247 253 259 265 267 277 283 281 260 253 255 260 259 259 270 278 283 284 284 281 276 273 274 279 280 281 275 276 277 282 286 287
177 178 178 181 191 203 208 215 230 240 245 255 258 258 262 270 282 287 288 284 263 257 257 261 270 271 284 273 279 283 282 280 279 279 278 278 280 277 277 278 275 274 275
176 180 183 186 198 205 212 228 238 241 246 254 259 259 264 273 285 290 292 287 269 261 257 257 262 266 267 274 265 264 261 264 269 272 267 269 269 268 265 269 273 277 275
181 188 191 190 198 208 224 237 242 245 253 254 257 261 265 275 286 292 293 278 269 265 261 260 264 262 273 282 281 275 273 267 273 275 275 277 277 280 281 282 281 285 286
192 193 191 191 199 215 230 241 244 245 255 261 265 261 261 269 282 290 291 277 272 273 267 261 272 277 281 285 280 275 278 277 269 273 275 278 279 280 283 276 272 277 281
180 179 189 199 209 223 235 243 250 256 263 266 270 271 266 269 281 286 288 283 271 275 275 268 262 281 286 287 286 280 280 286 278 272 273 270 266 263 262 258 251 257 267
167 183 202 213 222 228 237 253 255 256 267 273 276 280 271 269 277 282 285 285 285 282 279 273 272 284 286 287 289 286 289 294 288 282 277 272 265 261 259 258 255 252 253
174 201 218 228 234 233 237 252 261 256 262 273 275 280 282 270 271 282 287 289 289 286 278 282 286 290 292 291 288 290 292 289 281 278 276 273 262 257 259 266 268 266 267
197 221 231 239 251 248 243 246 252 258 262 269 273 278 281 278 268 267 269 278 282 282 281 281 286 289 288 286 288 289 279 269 271 272 273 272 266 259 261 261 270 277 280
217 235 245 245 251 259 255 247 252 246 250 263 267 268 279 284 279 284 286 280 273 271 280 276 273 274 271 270 271 271 265 265 273 267 271 276 274 269 268 261 260 266 267
234 248 251 254 257 259 269 279 267 264 273 274 275 276 277 279 288 292 292 292 293 292 292 283 280 277 278 279 280 278 269 263 262 264 269 272 272 269 270 268 262 260 265
237 252 257 257 260 264 267 275 286 287 279 279 280 282 283 287 290 293 294 294 293 294 288 280 277 276 276 274 272 272 272 266 261 261 264 265 266 265 266 267 266 264 263
246 260 264 257 259 263 265 268 274 284 292 285 280 282 286 288 290 292 294 297 291 286 269 272 273 272 271 271 270 270 269 267 262 258 257 258 258 261 264 264 262 258 261
255 259 260 259 260 262 266 269 272 275 281 286 286 284 285 288 289 289 291 283 280 279 274 271 269 269 268 268 268 267 264 264 262 257 256 253 252 254 258 259 259 264 262
261 275 280 273 267 269 269 272 275 277 280 283 285 286 287 287 283 282 275 267 270 274 274 272 270 267 265 265 266 266 265 263 259 256 254 252 248 248 253 254 255 255 253
266 277 285 284 273 273 274 274 275 276 279 282 282 284 287 286 283 280 277 272 270 273 273 273 272 270 266 263 262 261 261 264 260 254 252 250 245 247 247 248 250 250 249
271 273 274 274 276 276 277 274 275 278 279 281 284 286 289 286 281 280 278 276 272 269 268 268 270 268 264 261 261 262 263 263 260 252 251 248 242 243 244 245 246 245 241
271 276 279 279 278 283 286 280 278 279 280 282 284 285 284 280 278 278 277 275 272 271 268 265 268 267 261 258 255 255 259 261 260 255 253 250 243 242 241 242 240 238 237
273 277 281 283 283 281 281 282 281 280 281 282 283 283 282 279 279 279 277 276 273 272 269 265 263 264 263 263 261 255 253 255 254 255 250 248 244 241 240 240 237 235 234
278 281 283 283 284 284 284 284 284 283 283 283 283 283 282 281 280 279 277 275 273 273 270 267 266 266 265 263 261 259 262 265 266 261 250 244 241 237 235 236 235 233 229
284 285 286 285 284 284 284 285 285 283 283 283 282 281 282 281 280 280 278 275 274 273 272 270 265 262 262 264 265 266 270 270 269 267 258 247 238 235 230 232 229 229 227
Height
1502 1504 1506 1508 1510 1511 1512 1512 1513 1512 1512 1511 1510 1509 1507 1505 1503 1501 1499 1497 1495 1492 1490 1487 1485 1482 1480 1477 1474 1471 1468 1464 1455 1449 1449 1447 1444 1442 1439 1436 1433 1429 1426
1498 1501 1503 1505 1506 1507 1508 1508 1508 1508 1507 1506 1505 1504 1502 1500 1498 1495 1493 1491 1488 1486 1483 1480 1478 1475 1472 1470 1466 1463 1460 1457 1451 1442 1439 1438 1436 1434 1431 1428 1425 1422 1419
1494 1497 1499 1500 1502 1503 1504 1504 1504 1503 1502 1501 1500 1498 1497 1494 1492 1490 1487 1484 1482 1479 1476 1473 1471 1468 1464 1462 1458 1455 1452 1448 1444 1438 1432 1430 1428 1426 1423 1420 1417 1414 1412
1490 1492 1494 1496 1497 1499 1499 1499 1499 1498 1497 1496 1494 1493 1491 1488 1486 1483 1480 1477 1474 1472 1469 1466 1463 1460 1457 1453 1450 1447 1444 1440 1437 1432 1426 1423 1421 1419 1416 1412 1408 1406 1404
1485 1487 1490 1492 1493 1494 1494 1494 1494 1493 1492 1490 1489 1487 1485 1482 1479 1476 1473 1470 1467 1464 1461 1459 1456 1452 1449 1445 1442 1439 1436 1432 1429 1425 1420 1416 1413 1411 1409 1406 1402 1398 1395
1480 1482 1485 1487 1488 1489 1489 1489 1488 1487 1486 1484 1482 1480 1478 1476 1473 1469 1466 1462 1458 1455 1452 1450 1447 1444 1441 1437 1435 1432 1429 1426 1421 1418 1413 1410 1406 1405 1402 1399 1395 1391 1387
1475 1478 1480 1482 1483 1483 1484 1483 1482 1481 1480 1478 1476 1474 1471 1469 1466 1462 1459 1455 1451 1447 1444 1441 1438 1435 1432 1428 1425 1422 1420 1417 1415 1412 1406 1402 1400 1397 1395 1391 1388 1384 1380
1470 1472 1475 1476 1477 1478 1478 1477 1476 1475 1473 1471 1469 1466 1463 1461 1458 1454 1450 1446 1442 1439 1436 1433 1429 1425 1423 1419 1415 1411 1409 1407 1406 1402 1398 1394 1392 1389 1387 1384 1380 1376 1373
1465 1467 1470 1471 1472 1472 1472 1471 1470 1468 1466 1464 1461 1459 1455 1453 1450 1446 1442 1437 1433 1430 1427 1424 1420 1416 1413 1411 1407 1403 1399 1397 1396 1393 1390 1387 1384 1382 1380 1377 1373 1370 1365
1460 1463 1465 1466 1466 1466 1466 1465 1463 1461 1459 1456 1453 1451 1448 1444 1442 1438 1434 1429 1424 1420 1417 1414 1412 1408 1405 1403 1400 1395 1391 1387 1386 1383 1380 1378 1375 1373 1372 1370 1366 1363 1359
1457 1458 1460 1461 1461 1460 1460 1458 1456 1454 1451 1448 1445 1442 1439 1436 1433 1429 1426 1421 1416 1411 1407 1404 1401 1399 1396 1394 1391 1388 1384 1381 1377 1373 1370 1368 1366 1364 1363 1361 1359 1356 1352
1452 1454 1455 1455 1455 1454 1453 1451 1449 1446 1443 1439 1436 1432 1430 1427 1424 1420 1417 1413 1409 1404 1398 1395 1392 1389 1387 1385 1382 1379 1376 1373 1369 1365 1362 1359 1357 1355 1354 1352 1350 1348 1345
1448 1449 1450 1449 1449 1448 1446 1444 1441 1439 1435 1431 1427 1422 1419 1416 1414 1411 1407 1403 1399 1395 1390 1387 1384 1381 1378 1375 1372 1370 1367 1364 1360 1357 1354 1351 1350 1348 1346 1344 1342 1340 1338
1444 1444 1444 1443 1442 1441 1439 1437 1434 1431 1427 1423 1419 1414 1409 1406 1403 1400 1396 1393 1389 1386 1382 1378 1375 1371 1369 1365 1363 1360 1358 1355 1352 1349 1346 1344 1342 1340 1339 1337 1335 1333 1331
1438 1438 1438 1437 1435 1433 1431 1429 1425 1422 1420 1415 1410 1406 1401 1396 1393 1391 1388 1383 1380 1376 1372 1368 1365 1361 1358 1356 1353 1351 1348 1346 1344 1342 1339 1337 1335 1333 1332 1331 1329 1327 1325
1432 1432 1431 1429 1427 1425 1422 1419 1416 1414 1410 1406 1402 1399 1393 1389 1385 1382 1379 1375 1371 1368 1365 1360 1356 1353 1350 1347 1344 1342 1340 1338 1336 1334 1332 1330 1329 1327 1325 1324 1323 1322 1320
1427 1425 1424 1422 1419 1417 1413 1409 1404 1401 1400 1396 1393 1389 1385 1380 1376 1372 1368 1365 1361 1359 1355 1351 1347 1345 1342 1339 1337 1334 1332 1330 1329 1327 1325 1324 1322 1321 1320 1318 1317 1316 1315
1420 1419 1416 1414 1411 1408 1405 1401 1397 1391 1386 1382 1381 1378 1374 1370 1366 1362 1359 1355 1351 1348 1345 1342 1339 1336 1334 1331 1329 1326 1324 1323 1321 1320 1318 1317 1316 1315 1314 1313 1312 1311 1310
1413 1411 1408 1405 1402 1399 1396 1392 1388 1383 1378 1372 1368 1366 1364 1360 1356 1353 1350 1346 1342 1338 1335 1333 1330 1327 1325 1323 1321 1318 1317 1315 1314 1313 1311 1310 1310 1309 1307 1307 1306 1306 1305
1406 1403 1400 1397 1393 1390 1386 1382 1378 1374 1369 1364 1360 1356 1353 1349 1345 1341 1339 1336 1333 1329 1326 1323 1321 1319 1316 1314 1312 1310 1309 1307 1306 1305 1304 1303 1303 1302 1301 1301 1300 1300 1300
1397 1395 1392 1388 1384 1381 1377 1373 1369 1364 1360 1355 1351 1347 1345 1341 1336 1332 1329 1326 1323 1320 1317 1315 1312 1310 1308 1306 1304 1302 1301 1299 1298 1297 1297 1296 1296 1295 1295 1295 1295 1295 1295
1389 1386 1383 1379 1375 1371 1367 1363 1360 1355 1351 1346 1340 1337 1334 1331 1326 1323 1319 1316 1314 1311 1309 1306 1303 1301 1299 1297 1296 1294 1292 1291 1290 1290 1289 1289 1289 1288 1288 1288 1288 1289 1289
1381 1377 1373 1370 1366 1362 1358 1354 1350 1345 1340 1336 1331 1327 1323 1320 1316 1313 1309 1306 1304 1301 1299 1296 1293 1291 1289 1288 1287 1285 1284 1283 1282 1282 1282 1281 1281 1281 1282 1282 1282 1283 1283
1372 1368 1364 1360 1356 1352 1348 1343 1339 1335 1330 1326 1322 1317 1314 1310 1306 1303 1300 1297 1294 1291 1289 1286 1284 1281 1280 1279 1277 1276 1275 1274 1274 1273 1273 1274 1274 1274 1274 1275 1275 1276 1277
1364 1360 1356 1351 1347 1342 1338 1333 1328 1324 1320 1316 1311 1307 1303 1300 1296 1292 1289 1286 1283 1281 1278 1276 1274 1272 1270 1268 1267 1266 1266 1265 1265 1265 1265 1265 1266 1266 1267 1267 1268 1269 1271
1355 1351 1346 1341 1337 1332 1327 1323 1318 1314 1309 1305 1301 1297 1293 1289 1285 1282 1279 1276 1273 1270 1268 1266 1263 1262 1260 1258 1257 1256 1256 1255 1256 1256 1257 1257 1257 1258 1259 1260 1261 1262 1264